Regional Weather Roundup
Issued by NWS

Home | Current Version | Previous Version | Graphics & Text | Print | Product List | Glossary On
Versions: 1 2 3 4 5 6 7 8 9 10 11 12 13 14 15 16 17 18 19 20 21 22 23 24 25 26 27 28 29 30 31 32 33 34 35 36 37 38 39 40 41 42 43 44 45 46 47 48 49 50
238
ASUS43 KFSD 051510
RWRSD

WEATHER ROUNDUP FOR SOUTH DAKOTA
NATIONAL WEATHER SERVICE SIOUX FALLS SD
900 AM CST FRI FEB 05 2016

NOTE: "FAIR" INDICATES FEW OR NO CLOUDS BELOW 12,000 FEET WITH NO
SIGNIFICANT WEATHER AND/OR OBSTRUCTIONS TO VISIBILITY.


SDZ001>005-009-010-012>017-051600-
NORTHWEST AND NORTH CENTRAL SOUTH DAKOTA

CITY           SKY/WX    TMP DP  RH WIND       PRES   REMARKS
BUFFALO          N/A     25  21  85 W14       30.13R WCI  13
FAITH            N/A     31  24  75 NW21G33   30.15R WCI  18
MOBRIDGE       LGT SNOW  30  28  92 NW8       30.11R FOG     WCI  22
$$

SDZ012>016-024>037-041>051-057-063-072>074-051600-
SOUTHWEST AND SOUTH CENTRAL SOUTH DAKOTA

CITY           SKY/WX    TMP DP  RH WIND       PRES   REMARKS
RAPID CTY ARPT CLEAR     29  24  82 N21       30.19R WCI  16
PIERRE         CLOUDY    32  27  81 NW14      30.13R WCI  22
CUSTER         CLOUDY    26  15  63 NW12G20   30.12R WCI  16
ELLSWORTH AFB  PTCLDY    29  25  84 N20G28    30.18  WCI  17
PHILIP         MOCLDY    34  28  79 NW15      30.18R WCI  24
PINE RIDGE     CLOUDY    29  22  75 NW6       30.21R WCI  23
SPEARFISH      CLOUDY    28  23  80 W17G26    30.23R WCI  16
WINNER         CLOUDY    36  26  67 W12       30.16R
$$

SDZ004>011-016>023-039-040-051600-
NORTHEAST SOUTH DAKOTA

CITY           SKY/WX    TMP DP  RH WIND       PRES   REMARKS
ABERDEEN       CLOUDY    25  20  81 S8        30.15R WCI  16
WATERTOWN      CLOUDY    20  14  77 S10       30.13S WCI   9
BROOKINGS      CLOUDY    21  14  74 S16       30.16S WCI   7
SISSETON         N/A     25  18  74 SW6       30.14F WCI  18
$$

SDZ017-020-022-023-036>040-048>070-051600-
SOUTHEAST SOUTH DAKOTA

CITY           SKY/WX    TMP DP  RH WIND       PRES   REMARKS
SIOUX FALLS    CLOUDY    22  14  71 S16       30.21F WCI   8
HURON          CLOUDY    21  16  81 S8        30.16R WCI  11
CHAMBERLAIN    CLOUDY    30  25  80 W9        30.14S WCI  22
MITCHELL       CLOUDY    22  17  81 S10       30.17S WCI  11
YANKTON        CLOUDY    21  16  79 SE9       30.22S WCI  11
$$

ABBREVIATIONS USED IN REMARKS
   TC - TEMPERATURE IN CELSIUS
  WCI - WIND CHILL INDEX
   HX - HEAT INDEX
  VSB - VISIBILITY





USA.gov is the U.S. government's official web portal to all federal, state and local government web resources and services.